Location: ??
(35.4627°N, 139.3695°E)
Time: 04:53:09
(UTC+00:00)

Cosmos 1745 Rocket - Pass Details

Date: 25 November 2020
Orbit: 952 x 999 km, 83.0° (Epoch: 20 January)

Event Time Altitude Azimuth Distance (km) Brightness Sun altitude
Rises 18:30:24 0° 173° (S) 3,650 7.1 -35.9°
Reaches altitude 10° 18:32:55 10° 169° (S) 2,713 6.4 -35.3°
Maximum altitude 18:39:00 58° 92° (E) 1,133 4.4 -34.1°
Drops below altitude 10° 18:45:11 10° 15° (NNE) 2,759 6.5 -32.9°
Sets 18:47:46 0° 11° (NNE) 3,716 7.1 -32.3°
